Location: Kuppenheim
(48.8299°N, 8.2568°E)
Time: 08:19:12
(UTC+00:00)

Cosmos 1437 - Pass Details

Date: 20 June 2021
Orbit: 332 x 333 km, 81.1° (Epoch: 03 August)

Event Time Altitude Azimuth Distance (km) Brightness Sun altitude
Rises 01:46:42 0° 336° (NNW) 2,149 6.9 -11.4°
Reaches altitude 10° 01:48:51 10° 322° (NW) 1,306 5.5 -11.2°
Maximum altitude 01:51:11 24° 266° (W) 784 3.8 -11.0°
Enters shadow 01:52:20 18° 230° (SW) 933 3.9 -10.9°
